CONSULTA PERSONALIZADA Alfaro
      Predicción AEMET      
Valores extremos - medios de hoy
Fecha T (C) P (l/m2) Hr (%) Rs (W/m2) VV (km/h) DV Tint.(C)
Max Med Min Acu Med Med Max Med Max Med Min
 21-11-2017   15,5   6,2   1,5   0,0   67   182   11,2   219   20,8   18,0   15,8 
Datos de hoy
Fecha T (C) P (l/m2) Hr (%) Rs (W/m2) VV (km/h) DV Tint.(C)
Max Med Min Acu Med Med Max Med Max Med Min
 21-11-2017 16:15:00   14,6   14,5   14,4   0,0   36   238   6,1   89   20,7   20,1   19,5 
 21-11-2017 16:00:00   15,5   14,9   14,5   0,0   35   282   6,8   101   20,2   19,9   19,3 
 21-11-2017 15:45:00   14,7   14,5   14,3   0,0   37   329   7,2   85   19,7   19,4   19,1 
 21-11-2017 15:30:00   14,4   14,2   14,1   0,0   39   365   5,8   100   19,7   19,1   18,7 
 21-11-2017 15:15:00   14,4   13,9   13,6   0,0   41   399   7,6   56   19,4   19,0   18,4 
 21-11-2017 15:00:00   13,7   13,5   13,3   0,0   42   431   9,0   50   18,7   18,5   18,1 
 21-11-2017 14:45:00   13,5   13,1   12,9   0,0   43   461   8,6   49   18,7   18,2   17,9 
 21-11-2017 14:30:00   13,0   12,8   12,6   0,0   44   482   7,6   45   18,8   18,1   17,6 
 21-11-2017 14:15:00   12,9   12,7   12,5   0,0   44   502   6,8   6   18,1   17,7   17,4 
 21-11-2017 14:00:00   13,7   13,0   12,6   0,0   44   520   5,0   256   18,4   18,0   17,3 
 21-11-2017 13:45:00   12,7   12,4   11,9   0,0   46   533   5,8   222   18,0   17,4   17,1 
 21-11-2017 13:30:00   11,9   11,1   10,7   0,0   51   546   7,2   47   18,0   17,2   16,5 
 21-11-2017 13:15:00   10,9   10,5   10,1   0,0   54   552   6,8   43   17,0   16,7   16,4 
 21-11-2017 13:00:00   10,1   9,9   9,7   0,0   56   552   6,1   35   16,8   16,5   16,3 
 21-11-2017 12:45:00   9,7   9,3   9,0   0,0   58   548   3,6   345   16,8   16,5   16,1 
 21-11-2017 12:30:00   9,0   8,8   8,6   0,0   59   542   2,9   344   17,3   16,7   16,1 
 21-11-2017 12:15:00   8,7   8,4   8,1   0,0   60   529   2,2   359   17,2   16,3   15,9 
 21-11-2017 12:00:00   8,2   7,7   7,3   0,0   63   513   1,1   15   16,4   16,1   15,8 
 21-11-2017 11:45:00   7,3   7,0   6,8   0,0   65   491   3,2   10   16,3   16,1   15,8 
 21-11-2017 11:30:00   6,9   6,6   6,2   0,0   67   461   1,4   2   16,2   16,0   15,8 
 21-11-2017 11:15:00   6,2   5,7   5,5   0,0   71   441   4,3   270   17,0   16,6   16,0 
 21-11-2017 11:00:00   5,6   5,0   4,4   0,0   73   411   2,9   291   16,5   16,0   15,8 
 21-11-2017 10:45:00   4,5   4,3   4,2   0,0   74   380   4,3   275   16,9   16,3   15,8 
 21-11-2017 10:30:00   4,2   4,1   4,0   0,0   75   345   3,6   302   17,0   16,5   16,0 
 21-11-2017 10:15:00   4,0   3,4   2,8   0,0   76   308   1,8   8   16,9   16,3   15,8 
 21-11-2017 10:00:00   2,8   2,6   2,4   0,0   78   265   2,2   331   16,9   16,3   15,8 
 21-11-2017 09:45:00   2,8   2,6   2,3   0,0   80   230   2,5   263   16,7   16,3   15,9 
 21-11-2017 09:30:00   2,3   2,0   1,7   0,0   82   179   4,0   274   16,8   16,4   16,1 
 21-11-2017 09:15:00   1,7   1,6   1,5   0,0   84   105   7,9   286   16,7   16,4   16,1 
 21-11-2017 09:00:00   1,7   1,6   1,5   0,0   84   31   8,3   290   17,2   16,6   16,2 
 21-11-2017 08:45:00   1,6   1,6   1,5   0,0   85   22   8,6   300   17,2   16,7   16,4 
 21-11-2017 08:30:00   2,0   1,8   1,6   0,0   84   13   8,3   306   17,2   16,9   16,5 
 21-11-2017 08:15:00   2,3   2,1   1,8   0,0   84   5   9,7   284   17,8   17,4   16,6 
 21-11-2017 08:00:00   2,9   2,3   2,0   0,0   84   0   9,0   283   17,9   17,2   16,6 
 21-11-2017 07:45:00   2,4   2,2   2,0   0,0   84   0   6,5   280   17,9   17,1   16,7 
 21-11-2017 07:30:00   2,3   2,0   1,7   0,0   85   0   6,8   276   17,5   17,2   16,8 
 21-11-2017 07:15:00   2,1   1,7   1,6   0,0   84   0   8,6   272   17,5   17,2   16,9 
 21-11-2017 07:00:00   2,0   1,8   1,7   0,0   84   0   9,7   283   17,9   17,4   17,1 
 21-11-2017 06:45:00   2,2   2,0   1,8   0,0   83   0   11,2   289   18,0   17,6   17,2 
 21-11-2017 06:30:00   2,7   2,4   2,2   0,0   82   0   9,0   295   18,2   17,8   17,4 
 21-11-2017 06:15:00   2,6   2,4   2,2   0,0   82   0   6,1   317   18,0   17,7   17,4 
 21-11-2017 06:00:00   2,8   2,6   2,4   0,0   81   0   5,4   324   18,6   17,9   17,5 
 21-11-2017 05:45:00   3,1   3,0   2,8   0,0   80   0   7,2   300   18,7   18,1   17,7 
 21-11-2017 05:30:00   3,1   3,0   2,9   0,0   80   0   7,2   287   18,9   18,4   17,8 
 21-11-2017 05:15:00   3,2   3,0   2,9   0,0   78   0   6,5   295   18,9   18,4   17,8 
 21-11-2017 05:00:00   3,5   3,4   3,2   0,0   77   0   4,3   295   18,9   18,3   17,9 
 21-11-2017 04:45:00   3,8   3,6   3,4   0,0   75   0   5,0   302   19,0   18,6   18,1 
 21-11-2017 04:30:00   4,0   3,9   3,8   0,0   74   0   8,6   281   18,9   18,6   18,2 
 21-11-2017 04:15:00   4,2   4,1   4,0   0,0   74   0   8,3   275   19,3   18,9   18,2 
 21-11-2017 04:00:00   4,7   4,3   4,1   0,0   76   0   9,4   259   19,2   18,7   18,4 
 21-11-2017 03:45:00   4,9   4,5   4,1   0,0   76   0   8,6   266   19,5   19,0   18,5 
 21-11-2017 03:30:00   4,4   4,3   4,1   0,0   77   0   4,3   331   19,8   19,4   18,8 
 21-11-2017 03:15:00   4,7   4,5   4,3   0,0   76   0   7,2   21   19,7   19,1   18,7 
 21-11-2017 03:00:00   5,4   5,0   4,7   0,0   72   0   7,6   22   19,7   19,2   18,8 
 21-11-2017 02:45:00   5,4   4,9   4,7   0,0   70   0   2,9   318   19,9   19,6   18,9 
 21-11-2017 02:30:00   5,4   5,2   5,0   0,0   68   0   4,0   272   19,7   19,1   18,9 
 21-11-2017 02:15:00   6,2   5,7   5,4   0,0   65   0   2,9   281   19,9   19,5   19,1 
 21-11-2017 02:00:00   6,8   6,5   6,2   0,0   62   0   2,5   285   20,1   19,7   19,3 
 21-11-2017 01:45:00   6,9   6,8   6,8   0,0   62   0   5,8   261   20,0   19,6   19,2 
 21-11-2017 01:30:00   6,9   6,8   6,7   0,0   63   0   6,1   256   20,0   19,6   19,3 
 21-11-2017 01:15:00   7,0   6,9   6,6   0,0   63   0   8,6   234   20,2   19,8   19,5 
 21-11-2017 01:00:00   7,9   7,3   6,5   0,0   60   0   9,0   241   20,2   19,8   19,5 
 21-11-2017 00:45:00   7,8   7,7   7,5   0,0   60   0   6,5   269   20,2   19,8   19,6 
 21-11-2017 00:30:00   7,7   7,2   6,4   0,0   66   0   4,7   350   20,5   20,1   19,7 
 21-11-2017 00:15:00   6,8   6,6   6,5   0,0   66   0   6,8   15   20,4   20,2   19,9 
 21-11-2017 00:00:00   7,2   6,9   6,6   0,0   62   0   5,4   355   20,8   20,3   20,0 
Datos diarios
Fecha desde Fecha hasta       Visualizar         Exportar Excel  
     
Alfaro - Fecha desde: 14-11-2017 - Fecha hasta: 20-11-2017
Fecha T (C) P (l/m2) Hr (%) Rs (W/m2) VV (km/h) DV Tint.(C)
Max Med Min Acu Med Med Max Med Max Med Min
 20-11-2017   15,7   9,4   4,4   0,0   50   128   17,6   212   22,1   18,7   15,7 
 19-11-2017   16,8   9,2   3,1   0,0   61   132   28,1   314   21,3   17,8   14,9 
 18-11-2017   15,4   10,4   6,7   0,0   70   135   42,5   322   20,8   18,4   15,6 
 17-11-2017   19,1   12,1   6,2   0,0   49   133   32,4   308   22,3   19,4   16,9 
 16-11-2017   14,8   8,9   1,7   0,0   53   135   28,4   195   22,2   18,5   15,4 
 15-11-2017   15,2   8,0   2,4   0,0   56   125   25,6   293   20,2   16,6   13,7 
 14-11-2017   12,0   8,1   5,5   0,0   55   144   63,4   325   18,0   15,1   12,4 
Datos mensuales
        Exportar      
   
Alfaro
Fecha T (C) P (l/m2) Hr (%) Rs (W/m2) VV (km/h) DV Tint.(C)
Max Med Min Acu Med Med Max Med Max Med Min
 Noviembre -2017   20,1   10,9   1,7   2,6   66   112   63,4   267   22,3   15,4   8,6 
 Octubre -2017   26,9   16,8   5,9   8,5   64   170   49,7   241   28,0   20,8   12,1 
 Septiembre-2017   29,9   18,0   8,0   5,5   63   219   51,8   230   34,0   22,9   15,4 
 Agosto -2017   36,3   22,5   12,1   48,1   58   271   96,5   224   37,9   27,9   19,0 
 Julio -2017   35,6   23,0   11,5   11,6   56   322   58,7   238   37,8   28,5   17,1 
 Junio -2017   38,3   22,6   11,4   53,2   60   296   61,2   220   39,6   28,5   15,2 
 Mayo -2017   34,2   18,6   4,0   31,6   56   286   61,2   184   36,8   24,4   14,6 
 Abril -2017   26,6   13,7   2,1   5,5   53   274   61,2   239   31,8   22,8   14,7 
 Marzo -2017   26,1   11,8   3,7   37,7   66   193   60,1   212   29,5   20,8   13,1 
 Febrero -2017   19,9   9,4   1,8   36,8   74   112   87,5   209   24,9   19,1   13,1 
 Enero -2017   15,2   5,7   -4,3   10,0   72   86   61,2   267   25,6   18,5   10,2 
 Diciembre -2016   14,8   6,3   -0,9   6,6   92   52   47,2   211   20,5   10,3   5,1 
PARÁMETROS
Desc. Abr. Descripción
T Temperatura del aire
P Precipitación acumulada
Hr Humedad relativa del aire
Rs Radiación solar
VV Velocidad del viento
DV Dirección del viento
Tint Temperatura interior
 
FUNCIONES
Desc. Abr. Descripción
Max Máxima
Med Media
Min Mínima
Acu Acumulado